Location: Chrząstowo
(52.0654°N, 17.1290°E)
Time: 05:08:46
(UTC+01:00)

ZACube-1 - Visible Passes

Search period start: 28 February 2020 00:00
Search period end: 09 March 2020 00:00
Orbit: 585 x 665 km, 97.6° (Epoch: 27 February)

Date Brightness Start Highest point End Pass type
(mag) Time Alt. Az. Time Alt. Az. Time Alt. Az.
28 Feb ? 04:26:38 10° ENE 04:28:01 11° E 04:29:23 10° E visible
28 Feb ? 06:00:28 10° NNE 06:05:06 76° ESE 06:09:37 10° S visible
28 Feb ? 18:41:23 10° W 18:42:31 11° W 18:43:40 10° WNW visible
29 Feb ? 04:44:20 10° NE 04:47:15 17° E 04:50:08 10° SE visible
01 Mar ? 05:02:42 10° NE 05:06:25 24° E 05:10:03 10° SE visible
02 Mar ? 05:21:20 10° NNE 05:25:31 34° E 05:29:38 10° SSE visible
03 Mar ? 05:40:07 10° NNE 05:44:35 50° E 05:48:57 10° S visible
03 Mar ? 18:18:53 10° SW 18:21:47 17° W 18:24:42 10° NW visible
04 Mar ? 04:25:20 10° ENE 04:26:30 11° E 04:27:39 10° E visible
04 Mar ? 18:39:38 10° W 18:41:00 11° W 18:42:23 10° WNW visible
05 Mar ? 04:42:54 10° NE 04:45:43 16° E 04:48:30 10° SE visible
06 Mar ? 05:01:15 10° NE 05:04:54 23° E 05:08:28 10° SE visible
07 Mar ? 05:19:52 10° NNE 05:24:00 33° E 05:28:02 10° SSE visible
08 Mar ? 05:38:39 10° NNE 05:43:04 49° E 05:47:22 10° S visible
08 Mar ? 18:17:17 10° SW 18:20:15 17° W 18:23:14 10° NW visible
